Weinstadt-Endersbach, Germany

5:30 PM CET on February 25, 2017 (GMT +0100)
Stuttgart

Weather History for EDDS - November, 2013

Change the Weather History Date:

Monday, November 18, 2013

  Actual Average Record
Temperature  
Mean Temperature 43 °F -  
Max Temperature 51 °F 42 °F 60 °F (2015)
Min Temperature 35 °F 31 °F 24 °F (1998)
Degree Days  
Heating Degree Days 22    
Moisture  
Dew Point 37 °F    
Average Humidity 82    
Maximum Humidity 93    
Minimum Humidity 60    
Precipitation  
Precipitation 0.00 in - - ()
Sea Level Pressure  
Sea Level Pressure 29.89 in    
Wind  
Wind Speed 3 mph ()    
Max Wind Speed 7 mph    
Max Gust Speed -    
Visibility 9.5 miles    
Events      
Averages and records for this station are not official NWS values.
T = Trace of Precipitation, MM = Missing Value Source: Averaged Metar Reports

Daily Weather History Graph

Daily Weather History Graph

Search for Another Location

Airport or City:

Trip Planner

Search our weather history database for the weather conditions in past years. The results will help you decide how hot, cold, wet, or windy it might be!

Date:

Astronomy

Nov. 18, 2013 Rise Set
Actual Time 7:36 AM CET 4:39 PM CET
Civil Twilight 7:01 AM CET 5:14 PM CET
Nautical Twilight 6:22 AM CET 5:53 PM CET
Astronomical Twilight 5:45 AM CET 6:30 PM CET
Moon 5:28 PM CET (11/18) 8:10 AM CET (11/18)
Length of Visible Light 10h 13m
Length of Day
9h 03m
Full, 99% of the Moon is Illuminated
Nov 18
Full
Nov 25
Last Quarter
Dec 3
New
Dec 9
First Quarter
Dec 17
Full

Hourly Weather History & Observations

Time (CET) Temp. Windchill Dew Point Humidity Pressure Visibility Wind Dir Wind Speed Gust Speed Precip Events Conditions
12:00 AM 40 °F - 36 °F 82% 30.09 in 11 mi SSE 4.5 mph - -   Overcast
12:20 AM 41.0 °F 38.0 °F 35.6 °F 81% 30.04 in 6.2 mi South 4.6 mph - N/A   Overcast
12:50 AM 41.0 °F 39.0 °F 35.6 °F 81% 30.04 in 6.2 mi SSW 3.5 mph - N/A   Overcast
1:00 AM 40 °F - 36 °F 80% 30.07 in 12 mi South 4.5 mph - -   Overcast
1:20 AM 39.2 °F 35.0 °F 35.6 °F 87% 30.04 in 6.2 mi SSW 5.8 mph - N/A   Overcast
1:50 AM 39.2 °F 35.0 °F 35.6 °F 87% 30.04 in 6.2 mi South 5.8 mph - N/A   Overcast
2:00 AM 40 °F - 36 °F 79% 30.07 in 10 mi South 6.7 mph - -   Overcast
2:20 AM 39.2 °F 35.9 °F 35.6 °F 87% 30.01 in 6.2 mi South 4.6 mph - N/A   Mostly Cloudy
2:50 AM 39.2 °F 37.0 °F 35.6 °F 87% 30.01 in 6.2 mi South 3.5 mph - N/A   Mostly Cloudy
3:00 AM 39 °F - 35 °F 81% 30.04 in 9 mi South 2.2 mph - -   Mostly Cloudy
3:20 AM 39.2 °F - 35.6 °F 87% 29.98 in 6.2 mi South 2.3 mph - N/A   Mostly Cloudy
3:50 AM 39.2 °F - 33.8 °F 81% 29.98 in 6.2 mi SSW 2.3 mph - N/A   Mostly Cloudy
4:20 AM 39.2 °F - 33.8 °F 81% 29.98 in 6.2 mi SW 2.3 mph - N/A   Scattered Clouds
4:50 AM 37.4 °F - 33.8 °F 87% 29.95 in 6.2 mi SW 2.3 mph - N/A   Mostly Cloudy
5:00 AM 38 °F - 35 °F 84% 30.00 in 9 mi SSW 2.2 mph - -   Partly Cloudy
5:20 AM 37.4 °F - 33.8 °F 87% 29.95 in 6.2 mi Variable 1.2 mph - N/A   Mostly Cloudy
5:50 AM 37.4 °F - 33.8 °F 87% 29.92 in - South 1.2 mph - N/A   Clear
6:00 AM 37 °F - 35 °F 87% 29.98 in 9 mi SSE 2.2 mph - -   Partly Cloudy
6:20 AM 37.4 °F - 33.8 °F 87% 29.92 in - South 1.2 mph - N/A   Clear
6:50 AM 37.4 °F - 33.8 °F 87% 29.92 in - ESE 2.3 mph - N/A   Clear
7:00 AM 36 °F - 35 °F 92% 29.96 in 9 mi East 2.2 mph - -   Scattered Clouds
7:20 AM 35.6 °F - 33.8 °F 93% 29.92 in - East 1.2 mph - N/A   Clear
7:50 AM 35.6 °F - 33.8 °F 93% 29.92 in - SSE 1.2 mph - N/A   Clear
8:00 AM 35 °F - 33 °F 91% 29.97 in 12 mi ESE 2.2 mph - -   Scattered Clouds
8:20 AM 35.6 °F - 33.8 °F 93% 29.92 in - East 2.3 mph - N/A   Clear
8:50 AM 37.4 °F - 35.6 °F 93% 29.89 in - SE 1.2 mph - N/A   Clear
9:00 AM 37 °F - 36 °F 92% 29.95 in 12 mi ESE 2.2 mph - -   Scattered Clouds
9:20 AM 39.2 °F - 35.6 °F 87% 29.89 in - ESE 2.3 mph - N/A   Clear
9:50 AM 41.0 °F 39.0 °F 35.6 °F 81% 29.89 in - ESE 3.5 mph - N/A   Clear
10:20 AM 42.8 °F 41.1 °F 37.4 °F 81% 29.89 in - SE 3.5 mph - N/A   Clear
10:50 AM 44.6 °F 43.1 °F 37.4 °F 76% 29.89 in - ESE 3.5 mph - N/A   Clear
11:00 AM 44 °F - 38 °F 72% 29.93 in 16 mi East 4.5 mph - -   Scattered Clouds
11:20 AM 44.6 °F - 39.2 °F 81% 29.89 in - Variable 2.3 mph - N/A   Clear
11:50 AM 46.4 °F - 39.2 °F 76% 29.86 in - NE 1.2 mph - N/A   Clear
12:00 PM 46 °F - 39 °F 69% 29.90 in 19 mi NE 2.2 mph - -   Scattered Clouds
12:20 PM 50.0 °F - 41.0 °F 71% 29.86 in - Variable 2.3 mph - N/A   Clear
12:50 PM 50.0 °F - 39.2 °F 66% 29.86 in - SE 3.5 mph - N/A   Clear
1:00 PM 49 °F - 40 °F 63% 29.88 in 19 mi ESE 2.2 mph - -   Clear
1:20 PM 50.0 °F - 41.0 °F 71% 29.83 in - East 2.3 mph - N/A   Clear
1:50 PM 51.8 °F - 41.0 °F 67% 29.83 in - NE 2.3 mph - N/A   Clear
2:00 PM 51 °F - 41 °F 60% 29.85 in 19 mi NNE 2.2 mph - -   Clear
2:20 PM 50.0 °F - 41.0 °F 71% 29.83 in - NE 3.5 mph - N/A   Clear
2:50 PM 50.0 °F - 41.0 °F 71% 29.83 in - NE 2.3 mph - N/A   Clear
3:00 PM 51 °F - 41 °F 60% 29.84 in 19 mi NNE 2.2 mph - -   Clear
3:20 PM 50.0 °F - 41.0 °F 71% 29.83 in - NE 3.5 mph - N/A   Clear
3:50 PM 48.2 °F - 39.2 °F 71% 29.80 in - NNE 2.3 mph - N/A   Clear
4:20 PM 48.2 °F - 39.2 °F 71% 29.83 in - NE 3.5 mph - N/A   Clear
4:50 PM 46.4 °F 44.3 °F 39.2 °F 76% 29.80 in - North 4.6 mph - N/A   Clear
5:00 PM 46 °F - 39 °F 70% 29.84 in 12 mi NNW 4.5 mph - -   Clear
5:20 PM 44.6 °F - 39.2 °F 81% 29.80 in - Variable 1.2 mph - N/A   Clear
5:50 PM 44.6 °F - 39.2 °F 81% 29.80 in - West 1.2 mph - N/A   Clear
6:00 PM 43 °F - 39 °F 79% 29.85 in 9 mi West 2.2 mph - -   Clear
6:20 PM 41.0 °F - 37.4 °F 87% 29.80 in - NNW 2.3 mph - N/A   Clear
6:50 PM 41.0 °F - 37.4 °F 87% 29.80 in - Variable 1.2 mph - N/A   Clear
7:00 PM 40 °F - 37 °F 86% 29.86 in 7 mi SW 2.2 mph - -   Clear
7:20 PM 41.0 °F - 39.2 °F 93% 29.80 in - NE 2.3 mph - N/A   Clear
7:50 PM 41.0 °F - 37.4 °F 87% 29.80 in 5.6 mi NNE 2.3 mph - N/A   Unknown
8:00 PM 40 °F - 38 °F 89% 29.84 in 6 mi NNE 2.2 mph - -   Clear
8:20 PM 39.2 °F - 37.4 °F 93% 29.80 in 5.6 mi Variable 2.3 mph - N/A   Unknown
8:50 PM 39.2 °F 37.0 °F 37.4 °F 93% 29.80 in - NE 3.5 mph - N/A   Clear
9:00 PM 40 °F - 38 °F 91% 29.83 in 7 mi NNE 2.2 mph - -   Clear
9:20 PM 37.4 °F - 35.6 °F 93% 29.77 in - NE 1.2 mph - N/A   Clear
9:50 PM 39.2 °F - 35.6 °F 87% 29.77 in - Variable 2.3 mph - N/A   Clear
10:20 PM 37.4 °F - 35.6 °F 93% 29.77 in - Variable 1.2 mph - N/A   Clear
10:50 PM 39.2 °F - 37.4 °F 93% 29.77 in - Variable 1.2 mph - N/A   Clear
11:00 PM 38 °F - 37 °F 93% 29.83 in 7 mi South 2.2 mph - -   Clear
11:20 PM 37.4 °F 34.9 °F 33.8 °F 87% 29.77 in - NE 3.5 mph - N/A   Clear
11:50 PM 35.6 °F 32.8 °F 33.8 °F 93% 29.77 in - NNE 3.5 mph - N/A   Clear